Location: Skalnate Pleso
(49.1889°N, 20.2450°E)
Time: 06:03:00
(UTC+01:00)

In-Cosmos 22 Rocket - Pass Details

Date: 19 November 2019
Orbit: 791 x 887 km, 81.2° (Epoch: 07 December)

Event Time Altitude Azimuth Distance (km) Brightness Sun altitude
Rises 04:45:40 0° 202° (SSW) 3,301 7.1 -20.8°
Reaches altitude 10° 04:48:03 10° 206° (SSW) 2,385 6.4 -20.4°
Maximum altitude 04:53:22 60° 286° (WNW) 942 4.1 -19.5°
Drops below altitude 10° 04:58:52 10° 6° (N) 2,462 6.6 -18.6°
Sets 05:01:22 0° 10° (N) 3,416 7.4 -18.2°
